EW4077 Weather Reports


Display with metric or nautical units.
time (UTC)temp
F
wind
direction
speed
MPH
gust
MPH
rain 1hr
in
rain 24hr
in
rain mn
in
humidity
%
barometer
mb
20260902161541 71 185 1.0 3.0 0.00 0.00 0.00 75 1016.1
20260902160125 70 161 1.0 3.0 0.00 0.00 0.00 76 1016.0
20260902154552 71 167 1.0 4.0 0.00 0.00 0.00 78 1015.8
20260902153101 69 149 2.0 3.0 0.00 0.00 0.00 79 1015.9
20260902151507 68 173 0.0 0.0 0.00 0.00 0.00 82 1015.8
20260902150017 68 284 0.0 0.0 0.00 0.00 0.00 84 1015.8
20260902144511 68 286 0.0 0.0 0.00 0.00 0.00 84 1015.8
20260902143030 67 286 0.0 0.0 0.00 0.00 0.00 86 1015.6
20260902141536 65 286 0.0 0.0 0.00 0.00 0.00 88 1015.5
20260902140145 65 278 0.0 0.0 0.00 0.00 0.00 88 1015.4
20260902134614 64 278 0.0 0.0 0.00 0.00 0.00 88 1015.2
20260902133013 64 298 0.0 0.0 0.00 0.00 0.00 88 1015.0
20260902131521 64 298 0.0 0.0 0.00 0.00 0.00 88 1015.1
20260902130013 64 298 0.0 0.0 0.00 0.00 0.00 88 1015.0
20260902124510 64 317 1.0 3.0 0.00 0.00 0.00 88 1015.0
20260902123009 64 313 0.0 0.0 0.00 0.00 0.00 88 1015.0
20260902121507 64 294 0.0 0.0 0.00 0.00 0.00 88 1015.1
20260902120008 65 301 0.0 0.0 0.00 0.00 0.00 87 1015.0
20260902114514 65 294 0.0 0.0 0.00 0.00 0.00 88 1015.1
20260902113006 65 294 0.0 0.0 0.00 0.00 0.00 88 1015.2
20260902111506 65 250 0.0 0.0 0.00 0.00 0.00 88 1015.2
20260902110012 65 250 0.0 0.0 0.00 0.00 0.00 87 1015.2
20260902104506 65 296 0.0 0.0 0.00 0.00 0.00 87 1015.2
20260902103003 65 302 0.0 0.0 0.00 0.00 0.00 86 1015.2
20260902101502 64 302 0.0 0.0 0.00 0.00 0.00 86 1015.2
20260902100001 65 302 0.0 0.0 0.00 0.00 0.00 86 1015.2
20260902094600 65 302 0.0 0.0 0.00 0.00 0.00 86 1015.4
20260902093058 65 301 0.0 0.0 0.00 0.00 0.00 86 1015.4
20260902091558 66 302 0.0 0.0 0.00 0.00 0.00 85 1015.5
20260902090107 65 302 0.0 0.0 0.00 0.00 0.00 85 1015.5
20260902084559 66 302 0.0 0.0 0.00 0.00 0.00 84 1015.5
20260902083055 66 298 0.0 0.0 0.00 0.00 0.00 84 1015.6
20260902081554 66 272 0.0 0.0 0.00 0.00 0.00 82 1015.5
20260902080105 66 272 0.0 0.0 0.00 0.00 0.00 82 1015.6
20260902074551 66 272 0.0 1.0 0.00 0.00 0.00 83 1015.5
20260902073055 66 254 0.0 1.0 0.00 0.00 0.00 82 1015.4
20260902071549 67 242 1.0 4.0 0.00 0.00 0.00 82 1015.2
20260902070044 67 254 1.0 3.0 0.00 0.00 0.00 81 1015.0
20260902064547 67 258 0.0 2.0 0.00 0.00 0.00 81 1015.0
20260902063042 67 253 1.0 2.0 0.00 0.00 0.00 81 1015.0
20260902061547 68 213 1.0 2.0 0.00 0.00 0.00 81 1015.0
20260902060044 68 238 2.0 4.0 0.00 0.00 0.00 79 1015.0
20260902054539 68 236 0.0 2.0 0.00 0.00 0.00 79 1014.9
20260902053040 69 224 0.0 2.0 0.00 0.00 0.00 76 1014.9
20260902051538 69 256 1.0 3.0 0.00 0.00 0.00 75 1014.9
20260902050040 69 268 2.0 4.0 0.00 0.00 0.00 75 1014.8
20260902044537 69 281 2.0 5.0 0.00 0.00 0.00 76 1014.7
20260902043036 68 270 4.0 7.0 0.00 0.00 0.00 77 1014.5
20260902041535 68 254 3.0 8.0 0.00 0.00 0.00 79 1014.4
20260902040035 69 252 5.0 9.0 0.00 0.00 0.00 79 1014.0
20260902034534 68 248 4.0 8.0 0.00 0.00 0.00 79 1013.8
20260902033040 68 257 5.0 11.0 0.00 0.00 0.00 80 1013.6
20260902031634 69 257 6.0 14.0 0.00 0.00 0.00 78 1013.5
20260902030031 68 254 3.0 11.0 0.00 0.00 0.00 76 1013.3
20260902024530 69 259 10.0 16.0 0.00 0.00 0.00 75 1013.2
20260902023030 69 254 8.0 12.0 0.00 0.00 0.00 76 1013.0
20260902021535 69 272 3.0 9.0 0.00 0.00 0.00 76 1013.1
20260902020028 69 276 7.0 13.0 0.00 0.00 0.00 77 1013.1
20260902014536 70 254 8.0 16.0 0.00 0.00 0.00 78 1013.1
20260902013027 70 240 9.0 16.0 0.00 0.00 0.00 78 1013.2
20260902011535 70 256 11.0 18.0 0.00 0.00 0.00 78 1013.1
20260902010041 70 253 9.0 19.0 0.00 0.00 0.00 77 1013.2
20260902004529 70 230 13.0 21.0 0.00 0.00 0.00 77 1013.3
20260902003023 71 235 10.0 19.0 0.00 0.00 0.00 77 1013.2
20260902001524 71 246 12.0 19.0 0.00 0.00 0.00 77 1013.2
20260902000027 71 259 11.0 17.0 0.00 0.00 0.00 76 1013.2
20260901234538 71 252 11.0 21.0 0.00 0.00 0.00 76 1013.5
20260901233013 71 213 11.0 18.0 0.00 0.00 0.00 76 1013.5
20260901231512 71 230 13.0 18.0 0.00 0.00 0.00 76 1013.5
20260901230008 71 257 13.0 22.0 0.00 0.00 0.00 77 1013.5
20260901224507 71 268 11.0 20.0 0.00 0.00 0.00 76 1013.7
20260901223006 71 237 12.0 20.0 0.00 0.00 0.00 77 1013.7
20260901221600 71 236 12.0 19.0 0.00 0.00 0.00 77 1013.9
20260901221506 71 244 11.0 19.0 0.00 0.00 0.00 76 1013.9
20260901214556 71 258 14.0 20.0 0.00 0.00 0.00 77 1014.2
20260901213053 72 242 12.0 19.0 0.00 0.00 0.00 76 1014.3
20260901211555 72 236 11.0 18.0 0.00 0.00 0.00 74 1014.4
20260901210058 72 245 11.0 17.0 0.00 0.00 0.00 75 1014.4
20260901204550 72 254 10.0 17.0 0.00 0.00 0.00 75 1014.6
20260901203052 72 219 6.0 14.0 0.00 0.00 0.00 75 1014.7
20260901201548 72 229 11.0 16.0 0.00 0.00 0.00 72 1014.9
20260901200058 72 273 7.0 13.0 0.00 0.00 0.00 72 1015.1
20260901194601 72 274 6.0 11.0 0.00 0.00 0.00 73 1015.3
20260901193046 72 213 5.0 9.0 0.00 0.00 0.00 74 1015.4
20260901191545 72 209 4.0 8.0 0.00 0.00 0.00 73 1015.6
20260901190101 72 217 5.0 10.0 0.00 0.00 0.00 74 1015.7
20260901184541 72 186 4.0 8.0 0.00 0.00 0.00 74 1015.7
20260901183043 71 194 5.0 10.0 0.00 0.00 0.00 74 1015.7
20260901181549 71 189 5.0 8.0 0.00 0.00 0.00 74 1015.8
20260901180037 70 225 6.0 9.0 0.00 0.00 0.00 75 1015.8
20260901174535 70 183 6.0 9.0 0.00 0.00 0.00 76 1015.9
20260901173040 70 146 6.0 8.0 0.00 0.00 0.00 77 1015.8
20260901171533 70 188 5.0 10.0 0.00 0.00 0.00 77 1015.6
20260901170031 70 202 3.0 6.0 0.00 0.00 0.00 76 1015.5
20260901164527 70 239 3.0 7.0 0.00 0.00 0.00 77 1015.5
20260901163025 69 180 2.0 6.0 0.00 0.00 0.00 79 1015.5